| time (UTC) | temp F | wind direction | speed MPH | gust MPH | rain 1hr in | rain 24hr in | rain mn in | humidity % | barometer mb |
| 20260506013617 | 76 | 23 | 9.0 | 13.0 | 0.00 | 0.00 | 0.00 | 67 | 1003.7 |
| 20260506012617 | 77 | 45 | 6.0 | 9.0 | 0.00 | 0.00 | 0.00 | 66 | 1003.7 |
| 20260506011617 | 77 | 0 | 5.0 | 8.0 | 0.00 | 0.00 | 0.00 | 65 | 1003.6 |
| 20260506010617 | 78 | 45 | 9.0 | 13.0 | 0.00 | 0.00 | 0.00 | 63 | 1003.3 |
| 20260506005617 | 79 | 45 | 6.0 | 8.0 | 0.00 | 0.00 | 0.00 | 63 | 1003.3 |
| 20260506004617 | 79 | 45 | 7.0 | 11.0 | 0.00 | 0.00 | 0.00 | 62 | 1003.1 |
| 20260506003619 | 80 | 23 | 6.0 | 9.0 | 0.00 | 0.00 | 0.00 | 61 | 1003.1 |
| 20260506002617 | 81 | 0 | 3.0 | 5.0 | 0.00 | 0.00 | 0.00 | 60 | 1003.1 |
| 20260506001617 | 81 | 23 | 2.0 | 4.0 | 0.00 | 0.00 | 0.00 | 59 | 1003.0 |
| 20260506000616 | 82 | 0 | 6.0 | 14.0 | 0.00 | 0.00 | 0.00 | 58 | 1003.1 |
| 20260505235617 | 83 | 338 | 7.0 | 10.0 | 0.00 | 0.00 | 0.00 | 57 | 1002.9 |
| 20260505234617 | 83 | 0 | 4.0 | 7.0 | 0.00 | 0.00 | 0.00 | 57 | 1002.7 |
| 20260505233617 | 84 | 338 | 5.0 | 8.0 | 0.00 | 0.00 | 0.00 | 57 | 1002.9 |
| 20260505232617 | 87 | 0 | 6.0 | 10.0 | 0.00 | 0.00 | 0.00 | 54 | 1002.7 |
| 20260505231616 | 88 | 338 | 5.0 | 7.0 | 0.00 | 0.00 | 0.00 | 49 | 1002.8 |
| 20260505230637 | 88 | 315 | 5.0 | 7.0 | 0.00 | 0.00 | 0.00 | 48 | 1002.5 |
| 20260505225617 | 89 | 338 | 5.0 | 9.0 | 0.00 | 0.00 | 0.00 | 48 | 1002.6 |
| 20260505224616 | 91 | 315 | 8.0 | 12.0 | 0.00 | 0.00 | 0.00 | 46 | 1002.6 |
| 20260505223616 | 93 | 315 | 4.0 | 5.0 | 0.00 | 0.00 | 0.00 | 46 | 1002.6 |
| 20260505222616 | 93 | 248 | 1.0 | 2.0 | 0.00 | 0.00 | 0.00 | 44 | 1002.6 |
| 20260505221616 | 93 | 270 | 4.0 | 5.0 | 0.00 | 0.00 | 0.00 | 45 | 1002.6 |
| 20260505220656 | 93 | 315 | 2.0 | 4.0 | 0.00 | 0.00 | 0.00 | 46 | 1002.5 |
| 20260505215616 | 93 | 293 | 5.0 | 8.0 | 0.00 | 0.00 | 0.00 | 45 | 1002.6 |
| 20260505214616 | 93 | 248 | 6.0 | 9.0 | 0.00 | 0.00 | 0.00 | 45 | 1002.3 |
| 20260505213616 | 93 | 225 | 4.0 | 7.0 | 0.00 | 0.00 | 0.00 | 44 | 1002.5 |
| 20260505212636 | 92 | 248 | 1.0 | 2.0 | 0.00 | 0.00 | 0.00 | 48 | 1002.4 |
| 20260505211617 | 92 | 225 | 4.0 | 6.0 | 0.00 | 0.00 | 0.00 | 47 | 1002.8 |
| 20260505210616 | 92 | 293 | 5.0 | 7.0 | 0.00 | 0.00 | 0.00 | 48 | 1002.8 |
| 20260505205616 | 91 | 225 | 3.0 | 6.0 | 0.00 | 0.00 | 0.00 | 50 | 1003.0 |
| 20260505204616 | 91 | 270 | 6.0 | 8.0 | 0.00 | 0.00 | 0.00 | 49 | 1003.1 |
| 20260505203616 | 91 | 293 | 3.0 | 6.0 | 0.00 | 0.00 | 0.00 | 52 | 1003.0 |
| 20260505202616 | 90 | 248 | 5.0 | 7.0 | 0.00 | 0.00 | 0.00 | 54 | 1003.2 |
| 20260505201616 | 90 | 248 | 6.0 | 12.0 | 0.00 | 0.00 | 0.00 | 55 | 1003.5 |
| 20260505200616 | 89 | 225 | 5.0 | 8.0 | 0.00 | 0.00 | 0.00 | 56 | 1003.4 |
| 20260505195616 | 89 | 225 | 9.0 | 16.0 | 0.00 | 0.00 | 0.00 | 56 | 1003.6 |
| 20260505194616 | 89 | 225 | 8.0 | 13.0 | 0.00 | 0.00 | 0.00 | 57 | 1003.6 |
| 20260505193617 | 89 | 248 | 9.0 | 13.0 | 0.00 | 0.00 | 0.00 | 57 | 1003.6 |
| 20260505192616 | 88 | 248 | 6.0 | 9.0 | 0.00 | 0.00 | 0.00 | 58 | 1003.6 |
| 20260505191616 | 88 | 225 | 11.0 | 15.0 | 0.00 | 0.00 | 0.00 | 58 | 1003.7 |
| 20260505190616 | 88 | 225 | 9.0 | 12.0 | 0.00 | 0.00 | 0.00 | 60 | 1003.6 |
| 20260505185616 | 87 | 225 | 7.0 | 10.0 | 0.00 | 0.00 | 0.00 | 60 | 1003.5 |
| 20260505184616 | 87 | 270 | 8.0 | 12.0 | 0.00 | 0.00 | 0.00 | 62 | 1003.7 |
| 20260505183616 | 86 | 225 | 8.0 | 12.0 | 0.00 | 0.00 | 0.00 | 62 | 1003.8 |
| 20260505182615 | 86 | 203 | 7.0 | 9.0 | 0.00 | 0.00 | 0.00 | 64 | 1003.8 |
| 20260505181636 | 86 | 225 | 9.0 | 12.0 | 0.00 | 0.00 | 0.00 | 65 | 1003.8 |
| 20260505180616 | 85 | 225 | 8.0 | 12.0 | 0.00 | 0.00 | 0.00 | 65 | 1003.7 |
| 20260505175616 | 85 | 225 | 9.0 | 11.0 | 0.00 | 0.00 | 0.00 | 65 | 1003.8 |
| 20260505174616 | 84 | 225 | 8.0 | 15.0 | 0.00 | 0.00 | 0.00 | 67 | 1003.6 |
| 20260505173616 | 84 | 203 | 9.0 | 12.0 | 0.00 | 0.00 | 0.00 | 66 | 1003.8 |
| 20260505172636 | 83 | 225 | 6.0 | 11.0 | 0.00 | 0.00 | 0.00 | 68 | 1003.8 |
| 20260505171636 | 82 | 225 | 6.0 | 12.0 | 0.00 | 0.00 | 0.00 | 68 | 1003.7 |
| 20260505170616 | 83 | 248 | 7.0 | 11.0 | 0.00 | 0.00 | 0.00 | 68 | 1003.8 |
| 20260505165616 | 83 | 225 | 8.0 | 13.0 | 0.00 | 0.00 | 0.00 | 68 | 1004.1 |
| 20260505164616 | 83 | 248 | 4.0 | 8.0 | 0.00 | 0.00 | 0.00 | 69 | 1004.0 |
| 20260505163616 | 82 | 203 | 7.0 | 11.0 | 0.00 | 0.00 | 0.00 | 70 | 1003.7 |
| 20260505162615 | 82 | 203 | 9.0 | 14.0 | 0.00 | 0.00 | 0.00 | 70 | 1003.5 |
| 20260505161617 | 81 | 225 | 5.0 | 8.0 | 0.00 | 0.00 | 0.00 | 71 | 1003.5 |
| 20260505160658 | 80 | 225 | 8.0 | 14.0 | 0.00 | 0.00 | 0.00 | 72 | 1003.5 |
| 20260505152618 | 78 | 248 | 10.0 | 16.0 | 0.00 | 0.00 | 0.00 | 75 | 1003.2 |
| 20260505151618 | 78 | 225 | 5.0 | 10.0 | 0.00 | 0.00 | 0.00 | 75 | 1003.4 |
| 20260505150617 | 78 | 248 | 10.0 | 16.0 | 0.00 | 0.00 | 0.00 | 77 | 1003.4 |
| 20260505140617 | 75 | 225 | 7.0 | 11.0 | 0.00 | 0.00 | 0.00 | 81 | 1003.1 |
| 20260505124618 | 71 | 225 | 8.0 | 14.0 | 0.00 | 0.00 | 0.00 | 87 | 1002.2 |
| 20260505123637 | 70 | 225 | 6.0 | 8.0 | 0.00 | 0.00 | 0.00 | 88 | 1002.1 |
| 20260505122637 | 70 | 225 | 4.0 | 7.0 | 0.00 | 0.00 | 0.00 | 88 | 1001.9 |
| 20260505121617 | 70 | 225 | 4.0 | 6.0 | 0.00 | 0.00 | 0.00 | 88 | 1001.9 |
| 20260505120637 | 70 | 225 | 6.0 | 8.0 | 0.00 | 0.00 | 0.00 | 88 | 1001.7 |
| 20260505115658 | 70 | 225 | 5.0 | 7.0 | 0.00 | 0.00 | 0.00 | 88 | 1001.8 |
| 20260505114637 | 70 | 225 | 6.0 | 8.0 | 0.00 | 0.00 | 0.00 | 88 | 1001.8 |
| 20260505113617 | 70 | 225 | 5.0 | 7.0 | 0.00 | 0.00 | 0.00 | 88 | 1001.6 |
| 20260505112617 | 70 | 225 | 5.0 | 8.0 | 0.00 | 0.00 | 0.00 | 88 | 1001.6 |
| 20260505111617 | 70 | 225 | 4.0 | 6.0 | 0.00 | 0.00 | 0.00 | 88 | 1001.7 |
| 20260505110617 | 70 | 225 | 6.0 | 8.0 | 0.00 | 0.00 | 0.00 | 88 | 1001.6 |
| 20260505101617 | 71 | 225 | 7.0 | 10.0 | 0.00 | 0.00 | 0.00 | 87 | 1001.8 |
| 20260505100638 | 71 | 203 | 8.0 | 13.0 | 0.00 | 0.00 | 0.00 | 86 | 1001.8 |
| 20260505095638 | 71 | 225 | 9.0 | 14.0 | 0.00 | 0.00 | 0.00 | 86 | 1001.8 |
| 20260505094617 | 71 | 225 | 8.0 | 11.0 | 0.00 | 0.00 | 0.00 | 86 | 1001.9 |
| 20260505093617 | 71 | 225 | 5.0 | 11.0 | 0.00 | 0.00 | 0.00 | 86 | 1002.0 |
| 20260505092617 | 71 | 225 | 8.0 | 13.0 | 0.00 | 0.00 | 0.00 | 86 | 1001.9 |
| 20260505091637 | 71 | 225 | 8.0 | 11.0 | 0.00 | 0.00 | 0.00 | 85 | 1002.1 |
| 20260505090617 | 71 | 203 | 7.0 | 11.0 | 0.00 | 0.00 | 0.00 | 85 | 1002.4 |
| 20260505085617 | 71 | 225 | 7.0 | 9.0 | 0.00 | 0.00 | 0.00 | 85 | 1002.3 |
| 20260505084617 | 72 | 225 | 8.0 | 12.0 | 0.00 | 0.00 | 0.00 | 84 | 1002.3 |
| 20260505083617 | 72 | 225 | 9.0 | 13.0 | 0.00 | 0.00 | 0.00 | 84 | 1002.2 |
| 20260505082616 | 72 | 203 | 9.0 | 13.0 | 0.00 | 0.00 | 0.00 | 83 | 1002.3 |
| 20260505081617 | 72 | 225 | 8.0 | 13.0 | 0.00 | 0.00 | 0.00 | 83 | 1002.4 |
| 20260505080616 | 72 | 225 | 9.0 | 15.0 | 0.00 | 0.00 | 0.00 | 83 | 1002.4 |
| 20260505075617 | 73 | 203 | 6.0 | 10.0 | 0.00 | 0.00 | 0.00 | 82 | 1002.6 |
| 20260505074616 | 73 | 225 | 6.0 | 11.0 | 0.00 | 0.00 | 0.00 | 82 | 1002.7 |
| 20260505073617 | 73 | 225 | 7.0 | 13.0 | 0.00 | 0.00 | 0.00 | 81 | 1002.8 |
| 20260505072657 | 73 | 225 | 8.0 | 10.0 | 0.00 | 0.00 | 0.00 | 81 | 1002.9 |
| 20260505071637 | 73 | 225 | 6.0 | 10.0 | 0.00 | 0.00 | 0.00 | 80 | 1003.2 |
| 20260505070616 | 73 | 180 | 11.0 | 16.0 | 0.00 | 0.00 | 0.00 | 80 | 1003.3 |
| 20260505065617 | 73 | 203 | 6.0 | 8.0 | 0.00 | 0.00 | 0.00 | 79 | 1003.5 |
| 20260505064616 | 74 | 225 | 8.0 | 12.0 | 0.00 | 0.00 | 0.00 | 78 | 1003.7 |
| 20260505063616 | 74 | 180 | 7.0 | 11.0 | 0.00 | 0.00 | 0.00 | 77 | 1003.8 |
| 20260505062617 | 74 | 225 | 7.0 | 10.0 | 0.00 | 0.00 | 0.00 | 77 | 1003.9 |
| 20260505061616 | 74 | 225 | 5.0 | 7.0 | 0.00 | 0.00 | 0.00 | 76 | 1003.9 |
| 20260505060616 | 74 | 225 | 7.0 | 11.0 | 0.00 | 0.00 | 0.00 | 76 | 1003.9 |
| 20260505055616 | 75 | 203 | 7.0 | 13.0 | 0.00 | 0.00 | 0.00 | 75 | 1003.8 |
| 20260505054637 | 75 | 225 | 8.0 | 13.0 | 0.00 | 0.00 | 0.00 | 74 | 1003.7 |
| 20260505053617 | 75 | 203 | 8.0 | 11.0 | 0.00 | 0.00 | 0.00 | 73 | 1003.7 |
| 20260505052637 | 75 | 225 | 7.0 | 11.0 | 0.00 | 0.00 | 0.00 | 72 | 1003.7 |
| 20260505051616 | 76 | 225 | 8.0 | 15.0 | 0.00 | 0.00 | 0.00 | 71 | 1003.7 |
| 20260505050616 | 76 | 203 | 7.0 | 11.0 | 0.00 | 0.00 | 0.00 | 71 | 1004.0 |
| 20260505041637 | 76 | 225 | 8.0 | 10.0 | 0.00 | 0.00 | 0.00 | 71 | 1003.9 |
| 20260505040617 | 76 | 203 | 8.0 | 12.0 | 0.00 | 0.00 | 0.00 | 71 | 1004.2 |
| 20260505035657 | 76 | 180 | 6.0 | 9.0 | 0.00 | 0.00 | 0.00 | 72 | 1004.0 |
| 20260505034617 | 76 | 225 | 6.0 | 9.0 | 0.00 | 0.00 | 0.00 | 72 | 1004.1 |
| 20260505033617 | 76 | 225 | 7.0 | 10.0 | 0.00 | 0.00 | 0.00 | 72 | 1004.0 |
| 20260505032637 | 76 | 203 | 6.0 | 9.0 | 0.00 | 0.00 | 0.00 | 71 | 1004.1 |
| 20260505031617 | 76 | 180 | 7.0 | 11.0 | 0.00 | 0.00 | 0.00 | 71 | 1004.1 |
| 20260505030617 | 76 | 203 | 9.0 | 14.0 | 0.00 | 0.00 | 0.00 | 71 | 1004.1 |
| 20260505025617 | 76 | 203 | 8.0 | 13.0 | 0.00 | 0.00 | 0.00 | 71 | 1004.4 |
| 20260505024617 | 76 | 225 | 6.0 | 9.0 | 0.00 | 0.00 | 0.00 | 71 | 1004.3 |
| 20260505023617 | 76 | 225 | 7.0 | 10.0 | 0.00 | 0.00 | 0.00 | 71 | 1004.1 |
| 20260505022617 | 76 | 180 | 8.0 | 14.0 | 0.00 | 0.00 | 0.00 | 71 | 1004.0 |
| 20260505021617 | 76 | 203 | 8.0 | 12.0 | 0.00 | 0.00 | 0.00 | 70 | 1003.9 |
| 20260505020617 | 77 | 158 | 4.0 | 8.0 | 0.00 | 0.00 | 0.00 | 70 | 1003.9 |
| 20260505015617 | 77 | 158 | 6.0 | 8.0 | 0.00 | 0.00 | 0.00 | 70 | 1003.9 |
| 20260505014617 | 77 | 158 | 6.0 | 10.0 | 0.00 | 0.00 | 0.00 | 70 | 1003.7 |